Total_Precipitation_Accumulation
0.03 0.06 0.09 0.11 0.12 0.10 0.07 0.04 0.06 0.08 0.15 0.13 0.15 0.14 0.13 0.10 0.07 0.06 0.06 0.06 0.06 0.08 0.12 0.15 0.15 0.17 0.21 0.25 0.28 0.30 0.30 0.32 0.35 0.36 0.33 0.26 0.22 0.22 0.24 0.27 0.30 0.38 0.39 0.37
0.03 0.05 0.08 0.10 0.12 0.08 0.06 0.04 0.05 0.06 0.08 0.08 0.11 0.13 0.11 0.08 0.08 0.10 0.10 0.09 0.10 0.11 0.13 0.15 0.17 0.19 0.23 0.28 0.30 0.29 0.31 0.33 0.35 0.39 0.38 0.36 0.36 0.38 0.41 0.45 0.52 0.54 0.50 0.49
0.04 0.06 0.08 0.14 0.11 0.08 0.07 0.06 0.06 0.07 0.09 0.10 0.13 0.20 0.19 0.13 0.12 0.11 0.10 0.09 0.09 0.11 0.13 0.14 0.15 0.16 0.19 0.23 0.26 0.30 0.39 0.45 0.48 0.49 0.48 0.50 0.52 0.52 0.52 0.53 0.57 0.59 0.58 0.58
0.08 0.09 0.13 0.14 0.11 0.10 0.09 0.08 0.10 0.12 0.12 0.14 0.17 0.18 0.17 0.14 0.11 0.11 0.11 0.12 0.13 0.14 0.14 0.15 0.16 0.17 0.22 0.27 0.30 0.35 0.40 0.47 0.51 0.57 0.61 0.63 0.69 0.71 0.72 0.72 0.70 0.70 0.67 0.66
0.15 0.13 0.15 0.17 0.16 0.15 0.17 0.15 0.14 0.20 0.23 0.22 0.20 0.16 0.16 0.16 0.16 0.16 0.15 0.12 0.11 0.14 0.17 0.17 0.18 0.22 0.26 0.31 0.40 0.45 0.48 0.53 0.58 0.60 0.65 0.70 0.73 0.76 0.80 0.81 0.78 0.79 0.81 0.82
0.22 0.23 0.23 0.21 0.24 0.20 0.19 0.27 0.25 0.29 0.30 0.29 0.28 0.33 0.34 0.25 0.20 0.17 0.14 0.11 0.09 0.10 0.13 0.18 0.22 0.26 0.32 0.37 0.45 0.52 0.56 0.55 0.54 0.59 0.64 0.65 0.67 0.70 0.69 0.71 0.70 0.73 0.76 0.83
0.31 0.29 0.25 0.24 0.25 0.26 0.39 0.48 0.50 0.54 0.48 0.37 0.37 0.38 0.32 0.24 0.18 0.15 0.13 0.12 0.10 0.09 0.10 0.12 0.16 0.21 0.28 0.37 0.47 0.49 0.47 0.44 0.45 0.52 0.61 0.62 0.66 0.67 0.63 0.62 0.63 0.68 0.71 0.76
0.46 0.53 0.49 0.36 0.39 0.49 0.55 0.51 0.63 0.55 0.44 0.40 0.35 0.27 0.23 0.21 0.18 0.13 0.12 0.11 0.09 0.09 0.09 0.11 0.15 0.19 0.26 0.32 0.35 0.36 0.35 0.33 0.32 0.35 0.37 0.39 0.49 0.53 0.57 0.62 0.63 0.65 0.73 0.79
0.57 0.59 0.52 0.48 0.51 0.51 0.44 0.39 0.42 0.37 0.30 0.28 0.26 0.22 0.18 0.17 0.15 0.12 0.10 0.11 0.12 0.11 0.12 0.13 0.17 0.23 0.29 0.27 0.27 0.28 0.29 0.29 0.29 0.30 0.34 0.39 0.44 0.44 0.46 0.50 0.51 0.56 0.73 0.88
0.71 0.68 0.59 0.49 0.38 0.36 0.35 0.33 0.32 0.32 0.33 0.33 0.28 0.22 0.17 0.15 0.12 0.09 0.09 0.11 0.13 0.14 0.17 0.18 0.20 0.22 0.23 0.23 0.27 0.31 0.32 0.32 0.32 0.33 0.34 0.36 0.43 0.43 0.42 0.42 0.42 0.49 0.69 0.84
0.88 0.92 0.78 0.64 0.51 0.44 0.40 0.38 0.36 0.37 0.37 0.37 0.33 0.26 0.20 0.16 0.12 0.09 0.08 0.09 0.11 0.16 0.21 0.22 0.20 0.18 0.18 0.21 0.29 0.33 0.32 0.31 0.31 0.33 0.34 0.34 0.40 0.42 0.36 0.37 0.35 0.37 0.54 0.77
0.93 0.89 0.88 0.80 0.62 0.55 0.51 0.52 0.46 0.45 0.43 0.39 0.32 0.26 0.21 0.19 0.15 0.11 0.10 0.11 0.15 0.19 0.22 0.22 0.19 0.18 0.18 0.22 0.31 0.38 0.37 0.34 0.33 0.33 0.33 0.34 0.37 0.37 0.30 0.23 0.21 0.19 0.25 0.40
0.63 0.69 0.75 0.69 0.59 0.48 0.48 0.48 0.52 0.50 0.46 0.40 0.32 0.26 0.19 0.16 0.14 0.13 0.15 0.19 0.25 0.29 0.29 0.27 0.25 0.23 0.22 0.28 0.37 0.41 0.41 0.36 0.33 0.31 0.30 0.29 0.32 0.38 0.41 0.37 0.23 0.17 0.15 0.19
0.64 0.59 0.65 0.60 0.52 0.41 0.42 0.37 0.37 0.37 0.36 0.33 0.30 0.25 0.21 0.18 0.17 0.18 0.24 0.31 0.37 0.39 0.36 0.33 0.30 0.26 0.25 0.30 0.36 0.35 0.34 0.32 0.31 0.29 0.28 0.29 0.32 0.36 0.39 0.46 0.47 0.38 0.24 0.17
0.56 0.52 0.60 0.54 0.42 0.37 0.39 0.36 0.30 0.25 0.25 0.26 0.25 0.23 0.19 0.18 0.22 0.26 0.33 0.44 0.50 0.44 0.38 0.35 0.32 0.27 0.26 0.31 0.34 0.33 0.32 0.28 0.25 0.24 0.25 0.28 0.32 0.34 0.36 0.42 0.53 0.60 0.55 0.32
0.51 0.50 0.48 0.45 0.42 0.38 0.32 0.30 0.28 0.24 0.22 0.21 0.21 0.19 0.16 0.15 0.18 0.23 0.33 0.45 0.56 0.53 0.44 0.39 0.32 0.26 0.25 0.31 0.32 0.29 0.27 0.22 0.18 0.18 0.20 0.26 0.29 0.30 0.35 0.46 0.58 0.70 0.73 0.49
0.52 0.46 0.38 0.35 0.35 0.34 0.28 0.24 0.22 0.21 0.18 0.17 0.15 0.14 0.14 0.14 0.21 0.30 0.37 0.43 0.47 0.47 0.45 0.42 0.32 0.23 0.23 0.28 0.28 0.27 0.24 0.20 0.16 0.15 0.19 0.24 0.27 0.32 0.37 0.49 0.62 0.71 0.67 0.44
0.40 0.31 0.24 0.22 0.23 0.24 0.23 0.22 0.21 0.18 0.15 0.13 0.12 0.11 0.10 0.13 0.29 0.45 0.50 0.53 0.48 0.41 0.40 0.38 0.27 0.21 0.22 0.24 0.25 0.25 0.21 0.18 0.17 0.18 0.21 0.25 0.26 0.34 0.42 0.55 0.66 0.72 0.61 0.42
0.25 0.20 0.16 0.14 0.14 0.14 0.15 0.17 0.17 0.14 0.12 0.10 0.08 0.06 0.05 0.10 0.28 0.43 0.49 0.61 0.68 0.63 0.50 0.38 0.27 0.21 0.21 0.20 0.19 0.22 0.20 0.18 0.18 0.19 0.22 0.21 0.26 0.35 0.41 0.50 0.62 0.69 0.60 0.54
0.16 0.14 0.11 0.11 0.11 0.09 0.08 0.10 0.11 0.10 0.08 0.06 0.05 0.04 0.03 0.08 0.24 0.39 0.47 0.57 0.68 0.67 0.59 0.46 0.27 0.19 0.17 0.18 0.21 0.20 0.19 0.19 0.18 0.19 0.20 0.23 0.27 0.32 0.36 0.42 0.54 0.61 0.59 0.64
0.15 0.11 0.09 0.08 0.08 0.06 0.06 0.07 0.06 0.06 0.05 0.04 0.04 0.04 0.04 0.08 0.16 0.32 0.56 0.67 0.58 0.51 0.51 0.51 0.31 0.17 0.14 0.16 0.22 0.22 0.21 0.21 0.20 0.22 0.22 0.24 0.28 0.34 0.40 0.47 0.53 0.57 0.63 0.67
0.12 0.09 0.08 0.07 0.06 0.05 0.04 0.03 0.02 0.02 0.02 0.02 0.02 0.02 0.04 0.07 0.13 0.23 0.39 0.56 0.56 0.51 0.40 0.39 0.31 0.16 0.12 0.11 0.13 0.17 0.21 0.26 0.28 0.30 0.31 0.32 0.35 0.40 0.45 0.48 0.52 0.55 0.60 0.68
0.11 0.08 0.07 0.05 0.04 0.03 0.02 0.01 0.01 0.01 0.01 0.02 0.02 0.03 0.04 0.07 0.14 0.31 0.40 0.38 0.41 0.44 0.31 0.28 0.28 0.21 0.14 0.11 0.13 0.16 0.19 0.24 0.28 0.30 0.30 0.32 0.36 0.40 0.45 0.48 0.51 0.54 0.64 0.70
0.09 0.05 0.04 0.03 0.03 0.03 0.02 0.01 0.01 0.01 0.02 0.02 0.03 0.04 0.06 0.10 0.14 0.21 0.31 0.35 0.40 0.43 0.34 0.32 0.28 0.23 0.19 0.18 0.21 0.21 0.21 0.24 0.25 0.26 0.27 0.31 0.36 0.42 0.51 0.57 0.60 0.60 0.63 0.62
0.06 0.04 0.03 0.03 0.03 0.03 0.03 0.02 0.02 0.02 0.03 0.04 0.05 0.06 0.08 0.12 0.19 0.24 0.29 0.33 0.37 0.38 0.35 0.36 0.33 0.31 0.27 0.29 0.33 0.33 0.31 0.31 0.31 0.31 0.32 0.36 0.43 0.52 0.58 0.62 0.61 0.57 0.55 0.54
0.04 0.03 0.03 0.03 0.03 0.03 0.03 0.04 0.05 0.06 0.08 0.11 0.13 0.15 0.15 0.16 0.22 0.30 0.39 0.40 0.39 0.39 0.35 0.31 0.29 0.30 0.30 0.35 0.40 0.43 0.41 0.39 0.38 0.39 0.42 0.47 0.54 0.60 0.58 0.51 0.49 0.48 0.46 0.43
0.05 0.04 0.04 0.04 0.04 0.04 0.05 0.06 0.10 0.16 0.19 0.20 0.21 0.20 0.22 0.26 0.32 0.36 0.39 0.40 0.40 0.39 0.35 0.31 0.28 0.25 0.27 0.31 0.34 0.39 0.41 0.43 0.42 0.43 0.46 0.49 0.50 0.48 0.43 0.39 0.40 0.39 0.36 0.36